SL-8 DEB *

基本信息
目录编号:
18501
目录名称:
SL-8 DEB *
国际标识:
1978-019E
轨道中心:
EARTH
物体状态:
在轨
发射日期:
1978-02-17 UTC
轨道信息
数据来源: 国际轨道数据
星历时间: 2026-09-11T12:17:21+0800
半长轴: 7008.973km
偏心率: 0.0007489
轨道倾角: 74.052°
近地点辐角: 86.289°
升交点赤经: 324.590°
平近点角: 302.973°
近地点: 625.586km
远地点: 636.086km
周期: 97.329分钟
每日圈数: 14.795214
详细信息
发射场:
PKMTR
轨道高度:
LEO
数据来源:
AOE Integration Group
参考系:
TEME
时间系统:
UTC
历元类型:
SGP4
2D轨道图
3D轨道图
轨道高度分析图
轨道倾角分析图
轨道综合分析图
查看轨道综合分析图